Location: Poughquag
(41.6090°N, 73.6820°W)
Time: 02:24:54
(UTC-05:00)

Explorer 7 - All Passes

Search period start: 17 February 2020 00:00
Search period end: 27 February 2020 00:00
Orbit: 485 x 679 km, 50.3° (Epoch: 16 February)

Date Brightness Start Highest point End Pass type
(mag) Time Alt. Az. Time Alt. Az. Time Alt. Az.
17 Feb - 12:34:10 10° SSW 12:38:10 30° SE 12:42:00 10° ENE daylight
17 Feb - 14:14:07 10° WSW 14:18:34 59° NNW 14:22:46 10° NE daylight
17 Feb - 15:56:04 10° WNW 15:59:42 26° N 16:03:09 10° NE daylight
17 Feb - 17:37:31 10° NW 17:41:07 28° NNE 17:44:32 10° ENE daylight
17 Feb - 19:18:03 10° WNW 19:22:02 87° NNE 19:25:51 10° ESE visible
17 Feb - 20:59:54 10° W 21:02:00 14° SW 21:04:03 10° SSW visible
18 Feb - 12:38:31 10° SSW 12:42:58 47° SE 12:47:10 10° ENE daylight
18 Feb - 14:19:17 10° W 14:23:35 43° NNW 14:27:38 10° NE daylight
18 Feb - 16:01:20 10° WNW 16:04:52 24° N 16:08:14 10° NE daylight
18 Feb - 17:42:27 10° NW 17:46:14 34° NNE 17:49:49 10° E daylight
18 Feb - 19:23:01 10° WNW 19:26:55 58° SW 19:30:39 10° SE visible
19 Feb - 11:05:25 10° SSE 11:07:46 14° SE 11:10:05 10° E daylight
19 Feb - 12:43:11 10° SW 12:47:49 73° SE 12:52:11 10° ENE daylight
19 Feb - 14:24:33 10° W 14:28:39 34° NNW 14:32:32 10° NE daylight
19 Feb - 16:06:30 10° NW 16:10:02 24° N 16:13:25 10° ENE daylight
19 Feb - 17:47:21 10° NW 17:51:18 45° NNE 17:55:03 10° E daylight
19 Feb - 19:28:06 10° WNW 19:31:44 34° SW 19:35:12 10° SSE visible
20 Feb - 11:08:49 10° S 11:12:27 22° SE 11:15:59 10° E daylight
20 Feb - 12:48:05 10° WSW 12:52:44 77° NNW 12:57:07 10° NE daylight
20 Feb - 14:29:51 10° WNW 14:33:46 29° NNW 14:37:28 10° NE daylight
20 Feb - 16:11:35 10° NW 16:15:12 26° N 16:18:40 10° ENE daylight
20 Feb - 17:52:13 10° NW 17:56:18 65° NNE 18:00:10 10° ESE visible
20 Feb - 19:33:27 10° W 19:36:27 21° SW 19:39:21 10° S visible
21 Feb - 11:12:55 10° SSW 11:17:13 35° SE 11:21:20 10° ENE daylight
21 Feb - 12:53:09 10° WSW 12:57:42 54° NNW 13:02:00 10° NE daylight
21 Feb - 14:35:10 10° WNW 14:38:55 26° N 14:42:30 10° NE daylight
21 Feb - 16:16:34 10° NW 16:20:21 30° NNE 16:23:57 10° ENE daylight
21 Feb - 17:57:08 10° WNW 18:01:14 82° SW 18:05:07 10° SE visible
21 Feb - 19:39:29 10° WSW 19:41:06 12° SW 19:42:42 10° SSW visible
22 Feb - 11:17:23 10° SW 11:22:01 55° SE 11:26:26 10° ENE daylight
22 Feb - 12:58:21 10° W 13:02:44 41° NNW 13:06:53 10° NE daylight
22 Feb - 14:40:24 10° WNW 14:44:06 25° N 14:47:37 10° NE daylight
22 Feb - 16:21:28 10° NW 16:25:28 38° NNE 16:29:13 10° E daylight
22 Feb - 18:02:08 10° WNW 18:06:06 50° SW 18:09:50 10° SE visible
23 Feb - 09:43:44 10° S 09:46:46 17° SE 09:49:43 10° E daylight
23 Feb - 11:22:07 10° SW 11:26:53 83° SSE 11:31:25 10° ENE daylight
23 Feb - 13:03:38 10° W 13:07:50 33° NNW 13:11:47 10° NE daylight
23 Feb - 14:45:32 10° NW 14:49:16 26° N 14:52:48 10° ENE daylight
23 Feb - 16:26:21 10° NW 16:30:31 51° NNE 16:34:25 10° ESE daylight
23 Feb - 18:07:16 10° WNW 18:10:52 30° SW 18:14:17 10° SSE visible
24 Feb - 09:47:28 10° S 09:51:28 26° SE 09:55:21 10° ENE daylight
24 Feb - 11:27:04 10° WSW 11:31:49 69° NNW 11:36:20 10° NE daylight
24 Feb - 13:08:56 10° WNW 13:12:57 29° N 13:16:46 10° NE daylight
24 Feb - 14:50:35 10° NW 14:54:26 28° N 14:58:04 10° ENE daylight
24 Feb - 16:31:15 10° NW 16:35:29 75° NNE 16:39:28 10° ESE daylight
24 Feb - 18:12:44 10° W 18:15:34 18° SW 18:18:17 10° S visible
25 Feb - 09:51:42 10° SSW 09:56:14 41° SE 10:00:35 10° ENE daylight
25 Feb - 11:32:11 10° W 11:36:49 50° NNW 11:41:12 10° NE daylight
25 Feb - 13:14:13 10° WNW 13:18:07 26° N 13:21:49 10° NE daylight
25 Feb - 14:55:33 10° NW 14:59:34 33° NNE 15:03:21 10° E daylight
25 Feb - 16:36:11 10° WNW 16:40:24 71° SW 16:44:21 10° SE daylight
25 Feb - 18:19:17 10° WSW 18:20:11 11° SW 18:21:04 10° SW visible
26 Feb - 08:19:14 10° SSE 08:21:05 12° SE 08:22:55 10° ESE daylight
26 Feb - 09:56:16 10° SW 10:01:03 63° SE 10:05:38 10° ENE daylight
26 Feb - 11:37:25 10° W 11:41:52 39° NNW 11:46:06 10° NE daylight
26 Feb - 13:19:25 10° WNW 13:23:17 26° N 13:26:58 10° ENE daylight
26 Feb - 15:00:28 10° NW 15:04:39 42° NNE 15:08:35 10° E daylight
26 Feb - 16:41:12 10° WNW 16:45:14 43° SW 16:49:00 10° SSE daylight
